Estación: Puerto de San Pedro (San Pedro, Prov. de Buenos Aires)
← Volver a la estación| Fecha | Temp máx (°C) | Temp mín (°C) | Hum máx (%) | Hum mín (%) | Viento máx (km/h) | Viento mín (km/h) | Lluvia total (mm) |
|---|---|---|---|---|---|---|---|
| 2026-05-03 | 18.8 | 4.4 | 93 | 38 | 33.1 | 0.0 | 0.0 |
| 2026-05-02 | 17.5 | 9.5 | 84 | 25 | 33.1 | 0.0 | 0.0 |
| 2026-05-01 | 25.0 | 15.0 | 92 | 65 | 22.0 | 0.0 | 0.0 |
| 2026-04-30 | 25.2 | 8.6 | 97 | 40 | 18.4 | 0.0 | 0.0 |
| 2026-04-29 | 24.5 | 10.3 | 92 | 36 | 36.7 | 0.0 | 0.0 |
| 2026-04-28 | 20.5 | 8.3 | 89 | 51 | 40.3 | 0.0 | 0.0 |
| 2026-04-27 | 16.2 | 5.4 | 82 | 37 | 40.3 | 3.6 | 0.0 |
| 2026-04-26 | 18.7 | 9.3 | 93 | 33 | 47.9 | 0.0 | 0.0 |
| 2026-04-25 | 25.6 | 17.2 | 88 | 59 | 9.7 | 0.0 | 0.0 |
| 2026-04-24 | 20.1 | 11.6 | 99 | 79 | 7.2 | 0.0 | 0.0 |
| 2026-04-23 | 23.5 | 11.0 | 97 | 55 | 13.3 | 0.0 | 0.0 |
| 2026-04-22 | 23.0 | 10.6 | 94 | 53 | 20.9 | 0.0 | 1.5 |
| 2026-04-21 | 20.6 | 15.3 | 99 | 84 | 28.1 | 0.0 | 0.6 |
| 2026-04-20 | 24.3 | 17.9 | 97 | 74 | 29.5 | 6.1 | 0.0 |
| 2026-04-19 | 28.3 | 16.1 | 93 | 54 | 18.4 | 0.0 | 0.0 |
| 2026-04-18 | 27.6 | 16.8 | 99 | 47 | 22.0 | 0.0 | 0.0 |
| 2026-04-17 | 27.2 | 16.2 | 98 | 59 | 18.4 | 0.0 | 0.0 |
| 2026-04-16 | 26.9 | 19.8 | 99 | 63 | 25.6 | 0.0 | 0.6 |
| 2026-04-15 | 21.6 | 18.2 | 99 | 94 | 24.5 | 3.6 | 52.2 |
| 2026-04-14 | 24.5 | 17.3 | 99 | 81 | 28.1 | 3.6 | 0.0 |